Погода в Кодинске

Россия / Красноярский край     58°36′12″N   99°10′47″E
темп.,
°C
ветер,
м/с
пор.,
м/с
влажн.,
%
обл.,
%
осадки,
мм/ч
давл.,
гПа
погр.,
м
28 февраля, вс
вс2801:00−25юз2797100 0.1 1033246
04:00−25зюз2796100 0.1 1033403
07:00−26юз279799 0.1 1035220
10:00−24зюз478889 0.0 1035676
13:00−22зюз468695 0.1 1035860
16:00−21юз4787100 0.1 1034954
19:00−23юз2796100 0.1 1034276
22:00−25юз2298100 0.0 103364
1 марта, пн
пн101:00−24юз1298100 0.1 103249
04:00−26юз1199100 0.1 103119
07:00−28ююз119999 0.1 103019
10:00−23юз019242 0.0 1028227
13:00−19св018168 0.0 1025738
16:00−20св1184100 0.1 1023599
19:00−26св1294100 0.1 102319
22:00−28с129924 0.0 102219
2 марта, вт
вт201:00−30ссв2210020 0.0 102219
04:00−31с229929 0.0 102120
07:00−34с229915 0.0 102221
10:00−29с25930 0.0 1022265
13:00−24с358717 0.0 1022525
16:00−24с358789 0.0 1023604
19:00−30с229687 0.0 102519
22:00−33с12980 0.0 102719
3 марта, ср
ср301:00−35с12990 0.0 102819
04:00−37ссз12990 0.0 102919
07:00−38с12990 0.0 103218
10:00−32ссв23901 0.0 1031244
13:00−26св228116 0.0 1031554
16:00−25св2280100 0.0 1031673
19:00−31ссв129482 0.0 103319
22:00−34всв11970 0.0 103419
4 марта, чт
чт401:00−35юв01970 0.0 103519
04:00−36вюв11960 0.0 103619
07:00−37вюв11960 0.0 103919
10:00−29юв12870 0.0 1039243
13:00−23юв23800 0.0 1038511
16:00−22вюв348415 0.0 1037558
19:00−27вюв229315 0.0 103820
22:00−29вюв22950 0.0 103827